User: anonymous   Login
Location: Unspecified
(0.0000°N, 0.0000°E)
Time: 07:14:22
(UTC+00:00)
Language:

TIGRISAT - Orbit

View from above orbital plane
View from above orbital plane
View from above satellite
View from above satellite

Ground track
Ground track

The orbit data is extracted from the following two-line orbital elements,

1 40043U 14033AK  19168.19946459  .00000091  00000-0  20775-4 0  9999
2 40043  97.7579  36.1025 0061461 101.3414 259.4709 14.74267318268382
Epoch (UTC): 17 June 2019 04:47:13
Eccentricity: 0.0061461
inclination: 97.7579°
perigee height: 604 km
apogee height: 690 km
right ascension of ascending node: 36.1025°
argument of perigee: 101.3414°
revolutions per day: 14.74267318
mean anomaly at epoch: 259.4709°
orbit number at epoch: 26838

The dashed part of the orbit path shows where the satellite is in the earth's shadow,  

DLR